Weather History for KAUO - December, 2013

Change the Weather History Date:

Tuesday, December 3, 2013

  Actual Average Record
Temperature  
Mean Temperature 57 °F -  
Max Temperature 61 °F - 80 °F (1982)
Min Temperature 52 °F - 12 °F (1960)
Degree Days  
Heating Degree Days 8    
Month to date heating degree days 32  
Since 1 July heating degree days 467  
Growing Degree Days 6 (Base 50)    
Moisture  
Dew Point 54 °F    
Average Humidity 90    
Maximum Humidity 94    
Minimum Humidity 76    
Precipitation  
Precipitation 0.64 in - 6.34 in (2005)
Month to date precipitation 0.68  
Year to date precipitation 41.94  
Sea Level Pressure  
Sea Level Pressure 29.86 in    
Wind  
Wind Speed 6 mph (SSE)    
Max Wind Speed 12 mph    
Max Gust Speed 18 mph    
Visibility 7 miles    
Events      
T = Trace of Precipitation, MM = Missing Value Source: NWS Daily Summary

Daily Weather History Graph

Daily Weather History Graph

Search for Another Location

Airport or City:

Trip Planner

Search our weather history database for the weather conditions in past years. The results will help you decide how hot, cold, wet, or windy it might be!

Date:

Astronomy

Dec. 03, 2013 Rise Set
Actual Time 6:27 AM CST 4:35 PM CST
Civil Twilight 6:00 AM CST 5:02 PM CST
Nautical Twilight 5:30 AM CST 5:33 PM CST
Astronomical Twilight 5:00 AM CST 6:02 PM CST
Moon 6:57 AM CST (12/3) 5:37 PM CST (12/3)
Length of Visible Light 11h 01m
Length of Day
10h 07m
New Moon, 1% of the Moon is Illuminated
Dec 3
New Moon
Dec 9
First Quarter
Dec 17
Full
Dec 25
Last Quarter
Jan 1
New

Hourly Weather History & Observations

Time (CST) Temp. Dew Point Humidity Pressure Visibility Wind Dir Wind Speed Gust Speed Precip Events Conditions
12:15 AM 51.8 °F 44.6 °F 76% 29.84 in 10.0 mi SE 4.6 mph - N/A   Mostly Cloudy
12:35 AM 51.8 °F 44.6 °F 76% 29.84 in 10.0 mi SSE 5.8 mph - N/A   Mostly Cloudy
12:55 AM 51.8 °F 46.4 °F 82% 29.84 in 10.0 mi SSE 5.8 mph - N/A   Mostly Cloudy
1:15 AM 51.8 °F 46.4 °F 82% 29.84 in 10.0 mi South 6.9 mph - N/A   Overcast
1:35 AM 51.8 °F 46.4 °F 82% 29.83 in 10.0 mi SSE 6.9 mph - N/A   Overcast
1:55 AM 51.8 °F 46.4 °F 82% 29.83 in 10.0 mi South 6.9 mph - N/A   Overcast
2:15 AM 51.8 °F 46.4 °F 82% 29.83 in 10.0 mi South 6.9 mph - N/A   Overcast
2:35 AM 51.8 °F 48.2 °F 88% 29.83 in 10.0 mi SSE 6.9 mph - N/A   Overcast
2:55 AM 51.8 °F 48.2 °F 88% 29.83 in 10.0 mi South 5.8 mph - N/A   Overcast
3:15 AM 51.8 °F 48.2 °F 88% 29.84 in 7.0 mi SSE 5.8 mph - 0.02 in   Overcast
3:35 AM 51.8 °F 48.2 °F 88% 29.83 in 8.0 mi SSE 5.8 mph - 0.03 in   Overcast
3:55 AM 51.8 °F 48.2 °F 88% 29.84 in 7.0 mi SSE 4.6 mph - 0.03 in   Overcast
4:15 AM 51.8 °F 48.2 °F 88% 29.84 in 6.0 mi SSE 4.6 mph - N/A   Overcast
4:35 AM 51.8 °F 48.2 °F 88% 29.84 in 7.0 mi SE 6.9 mph - N/A   Overcast
4:55 AM 51.8 °F 48.2 °F 88% 29.84 in 5.0 mi SSE 5.8 mph - N/A   Overcast
5:15 AM 51.8 °F 50.0 °F 94% 29.83 in 6.0 mi SE 6.9 mph - N/A   Overcast
5:35 AM 51.8 °F 50.0 °F 94% 29.84 in 5.0 mi SSE 5.8 mph - N/A   Overcast
5:55 AM 51.8 °F 50.0 °F 94% 29.84 in 5.0 mi SE 5.8 mph - N/A   Overcast
6:15 AM 51.8 °F 50.0 °F 94% 29.86 in 3.0 mi SE 3.5 mph - N/A   Overcast
6:35 AM 51.8 °F 50.0 °F 94% 29.86 in 2.0 mi SE 3.5 mph - N/A   Overcast
6:55 AM 51.8 °F 50.0 °F 94% 29.86 in 1.5 mi SE 4.6 mph - N/A   Overcast
7:15 AM 51.8 °F 50.0 °F 94% 29.86 in 2.0 mi SE 5.8 mph - N/A   Overcast
7:35 AM 53.6 °F 50.0 °F 88% 29.87 in 2.0 mi SSE 5.8 mph - N/A   Overcast
7:55 AM 53.6 °F 51.8 °F 94% 29.87 in 1.5 mi SSE 5.8 mph - N/A   Overcast
8:15 AM 53.6 °F 51.8 °F 94% 29.88 in 2.0 mi SSE 5.8 mph - N/A   Overcast
8:35 AM 53.6 °F 51.8 °F 94% 29.89 in 2.5 mi SSE 6.9 mph - N/A   Overcast
8:55 AM 55.4 °F 51.8 °F 88% 29.90 in 3.0 mi South 5.8 mph - N/A   Overcast
9:15 AM 55.4 °F 51.8 °F 88% 29.90 in 2.0 mi South 5.8 mph - N/A   Overcast
9:35 AM 55.4 °F 53.6 °F 94% 29.90 in 3.0 mi SSE 6.9 mph - N/A   Overcast
9:55 AM 55.4 °F 53.6 °F 94% 29.90 in 4.0 mi SSE 8.1 mph - N/A   Overcast
10:15 AM 57.2 °F 55.4 °F 94% 29.89 in 8.0 mi South 8.1 mph - N/A   Overcast
10:35 AM 57.2 °F 55.4 °F 94% 29.89 in 9.0 mi South 9.2 mph - N/A   Overcast
10:55 AM 57.2 °F 55.4 °F 94% 29.88 in 10.0 mi South 8.1 mph - N/A   Overcast
11:15 AM 57.2 °F 55.4 °F 94% 29.87 in 10.0 mi South 6.9 mph - N/A   Overcast
11:35 AM 59.0 °F 55.4 °F 88% 29.86 in 10.0 mi South 8.1 mph - N/A   Overcast
11:55 AM 60.8 °F 55.4 °F 82% 29.86 in 7.0 mi South 9.2 mph - N/A   Overcast
12:15 PM 60.8 °F 55.4 °F 82% 29.85 in 5.0 mi South 6.9 mph - 0.03 in   Overcast
12:35 PM 59.0 °F 55.4 °F 88% 29.85 in 3.0 mi South 9.2 mph - 0.14 in   Overcast
12:55 PM 59.0 °F 57.2 °F 94% 29.84 in 7.0 mi South 8.1 mph - 0.18 in   Overcast
1:15 PM 59.0 °F 57.2 °F 94% 29.84 in 8.0 mi South 8.1 mph - 0.01 in   Overcast
1:35 PM 59.0 °F 57.2 °F 94% 29.83 in 3.0 mi SSE 8.1 mph - 0.05 in   Overcast
1:55 PM 60.8 °F 57.2 °F 88% 29.83 in 4.0 mi SSE 8.1 mph - 0.16 in   Overcast
2:15 PM 60.8 °F 57.2 °F 88% 29.83 in 7.0 mi South 6.9 mph - 0.02 in   Overcast
2:35 PM 60.8 °F 57.2 °F 88% 29.83 in 4.0 mi South 4.6 mph - 0.04 in   Overcast
2:55 PM 60.8 °F 57.2 °F 88% 29.83 in 7.0 mi South 11.5 mph - 0.05 in   Overcast
3:15 PM 60.8 °F 57.2 °F 88% 29.83 in 4.0 mi Calm Calm - N/A   Overcast
3:35 PM 60.8 °F 57.2 °F 88% 29.83 in 6.0 mi SSE 4.6 mph - N/A   Overcast
3:55 PM 60.8 °F 57.2 °F 88% 29.83 in 5.0 mi East 3.5 mph - N/A   Overcast
4:15 PM 60.8 °F 57.2 °F 88% 29.84 in 5.0 mi Calm Calm - N/A   Overcast
4:35 PM 60.8 °F 57.2 °F 88% 29.84 in 3.0 mi ESE 3.5 mph - 0.03 in   Overcast
4:55 PM 60.8 °F 57.2 °F 88% 29.83 in 4.0 mi East 8.1 mph - 0.14 in   Overcast
5:15 PM 60.8 °F 57.2 °F 88% 29.85 in 8.0 mi Calm Calm - 0.03 in   Overcast
5:35 PM 60.8 °F 57.2 °F 88% 29.84 in 6.0 mi ESE 4.6 mph - 0.03 in   Overcast
5:55 PM 60.8 °F 57.2 °F 88% 29.85 in 7.0 mi Calm Calm - 0.03 in   Overcast
6:15 PM 59.0 °F 57.2 °F 94% 29.86 in 7.0 mi ENE 5.8 mph - N/A   Overcast
6:35 PM 59.0 °F 57.2 °F 94% 29.86 in 7.0 mi ESE 4.6 mph - N/A   Mostly Cloudy
6:55 PM 59.0 °F 57.2 °F 94% 29.87 in 8.0 mi East 3.5 mph - 0.01 in   Overcast
7:15 PM 59.0 °F 57.2 °F 94% 29.88 in 7.0 mi NW 10.4 mph 18.4 mph 0.03 in   Mostly Cloudy
7:35 PM 60.8 °F 57.2 °F 88% 29.88 in 10.0 mi Calm Calm - 0.04 in   Overcast
7:55 PM 59.0 °F 57.2 °F 94% 29.88 in 5.0 mi ESE 3.5 mph - 0.04 in   Mostly Cloudy
8:15 PM 59.0 °F 57.2 °F 94% 29.88 in 7.0 mi SE 4.6 mph - N/A   Partly Cloudy
8:35 PM 59.0 °F 57.2 °F 94% 29.87 in 9.0 mi SSE 5.8 mph - N/A   Clear
8:55 PM 59.0 °F 57.2 °F 94% 29.88 in 10.0 mi SSE 5.8 mph - N/A   Clear
9:15 PM 59.0 °F 57.2 °F 94% 29.88 in 10.0 mi SSE 6.9 mph - N/A   Clear
9:35 PM 59.0 °F 55.4 °F 88% 29.88 in 10.0 mi South 6.9 mph - N/A   Clear
9:55 PM 59.0 °F 57.2 °F 94% 29.89 in 10.0 mi SSE 6.9 mph - N/A   Mostly Cloudy
10:15 PM 60.8 °F 57.2 °F 88% 29.89 in 10.0 mi SSE 6.9 mph - N/A   Mostly Cloudy
10:35 PM 60.8 °F 57.2 °F 88% 29.90 in 10.0 mi South 8.1 mph - N/A   Overcast
10:55 PM 60.8 °F 57.2 °F 88% 29.90 in 10.0 mi South 9.2 mph - N/A   Mostly Cloudy
11:15 PM 60.8 °F 57.2 °F 88% 29.90 in 8.0 mi South 6.9 mph - N/A   Overcast
11:35 PM 60.8 °F 57.2 °F 88% 29.91 in 9.0 mi South 8.1 mph - N/A   Overcast
11:55 PM 60.8 °F 57.2 °F 88% 29.91 in 7.0 mi South 6.9 mph - N/A   Overcast